ZHUHAI-1 01 (CAS 4A) (42761 NORAD) Tracking and Keplerian Element Data

This shows tracking and keplerian element data for the satellite.

Feedback or suggestion? Click here.




ElementValue
Catalog42761
NameZHUHAI-1 01 (CAS 4A)
Epoch Orbit9759
Epoch Day82.10569793
Epoch Year2019
RAAN351.3933
Inclination43.0189
Eccentricity0.0010233
Argument of Perigee55.5462
Mean Anonmoly82.1463
Mean Motion15.09590998
Decay Rate2.06E-06
L11 42761U 17034D 19082.10569793 .00000206 00000-0 26111-4 0 9998
L22 42761 43.0189 351.3933 0010233 55.5462 82.1463 15.09590998 97599

Live tracking and technical data element details for ZHUHAI-1 01 (CAS 4A) (NORAD 42761). ZHUHAI-1 01 (CAS 4A) can be tracked NOW for your location showing map with azimuth and elevation plus other details from your city location.

Track the satellite on the map from your city or location and see movement details for azimuth, elevation, latitude, longitude, range, height, and movement on the map or in text.







IsCatalogInMostPopularTable: catalog: 42761, numindb: 220
Update: records affected: 1



GetName: 42761 ZHUHAI-1 01 (CAS 4A)

Hit Count: updated at: Sun, 24 Mar 2019 09:14:57 GMT